| time (UTC) | temp C | wind direction | speed KPH | gust KPH | rain 1hr cm | rain 24hr cm | rain mn cm | humidity % | barometer mb |
| 20260506072119 | 9 | 10 | 12.9 | 24.1 | 0.00 | 0.00 | 0.00 | 79 | 1013.9 |
| 20260506062256 | 7 | 355 | 6.4 | 14.5 | 0.00 | 0.00 | 0.00 | 86 | 1014.0 |
| 20260506042247 | 5 | 355 | 3.2 | 9.7 | 0.00 | 0.00 | 0.00 | 89 | 1014.0 |
| 20260506035144 | 5 | 0 | 1.6 | 6.4 | 0.00 | 0.00 | 0.00 | 88 | 1014.1 |
| 20260506032157 | 5 | 5 | 1.6 | 9.7 | 0.00 | 0.00 | 0.00 | 87 | 1014.2 |
| 20260506025318 | 6 | 0 | 4.8 | 8.0 | 0.00 | 0.00 | 0.00 | 85 | 1014.3 |
| 20260506022253 | 7 | 0 | 4.8 | 12.9 | 0.00 | 0.00 | 0.00 | 83 | 1014.3 |
| 20260506015243 | 8 | 17 | 9.7 | 24.1 | 0.00 | 0.00 | 0.00 | 81 | 1014.5 |
| 20260506012248 | 8 | 9 | 9.7 | 20.9 | 0.00 | 0.00 | 0.00 | 80 | 1014.4 |
| 20260506002223 | 9 | 0 | 9.7 | 17.7 | 0.00 | 0.00 | 0.00 | 78 | 1014.7 |
| 20260505235235 | 9 | 13 | 6.4 | 16.1 | 0.00 | 0.00 | 0.00 | 78 | 1014.8 |
| 20260505232108 | 10 | 14 | 9.7 | 22.5 | 0.00 | 0.00 | 0.00 | 79 | 1014.8 |
| 20260505225135 | 10 | 17 | 14.5 | 24.1 | 0.00 | 0.00 | 0.00 | 78 | 1014.8 |
| 20260505222218 | 10 | 18 | 11.3 | 22.5 | 0.00 | 0.00 | 0.00 | 78 | 1015.0 |
| 20260505215252 | 10 | 25 | 11.3 | 20.9 | 0.00 | 0.00 | 0.00 | 79 | 1014.8 |
| 20260505204846 | 11 | 15 | 11.3 | 19.3 | 0.00 | 0.00 | 0.00 | 78 | 1014.7 |
| 20260505201916 | 11 | 30 | 12.9 | 24.1 | 0.00 | 0.00 | 0.00 | 76 | 1014.7 |
| 20260505194833 | 11 | 33 | 12.9 | 22.5 | 0.00 | 0.00 | 0.00 | 75 | 1014.2 |
| 20260505191943 | 11 | 24 | 19.3 | 25.7 | 0.00 | 0.00 | 0.00 | 74 | 1013.8 |
| 20260505184906 | 12 | 29 | 16.1 | 27.4 | 0.00 | 0.00 | 0.00 | 72 | 1013.7 |
| 20260505171409 | 14 | 16 | 19.3 | 29.0 | 0.00 | 0.00 | 0.00 | 66 | 1013.2 |
| 20260505151101 | 17 | 11 | 4.8 | 14.5 | 0.00 | 0.00 | 0.00 | 59 | 1012.7 |
| 20260505123900 | 16 | 19 | 3.2 | 9.7 | 0.00 | 0.00 | 0.00 | 61 | 1013.2 |
| 20260505120941 | 16 | 19 | 1.6 | 9.7 | 0.00 | 0.00 | 0.00 | 62 | 1013.3 |
| 20260505100642 | 15 | 38 | 4.8 | 12.9 | 0.00 | 0.00 | 0.00 | 65 | 1013.9 |
| 20260505093709 | 15 | 16 | 4.8 | 14.5 | 0.00 | 0.00 | 0.00 | 66 | 1014.2 |
| 20260505083544 | 12 | 20 | 3.2 | 9.7 | 0.00 | 0.00 | 0.00 | 80 | 1014.6 |
| 20260505080517 | 12 | 20 | 1.6 | 9.7 | 0.00 | 0.00 | 0.00 | 82 | 1014.7 |
| 20260505073411 | 11 | 20 | 0.0 | 4.8 | 0.00 | 0.00 | 0.00 | 86 | 1014.7 |